WA3WZR Weather Reports


time (UTC)temp
C
wind
direction
speed
KPH
gust
KPH
rain 1hr
cm
rain 24hr
cm
rain mn
cm
humidity
%
barometer
mb
20260510045349 12 28 0.0 1.6 0.08 0.99 0.05 94 1010.8
20260510044829 12 28 0.0 1.6 0.10 0.99 0.05 93 1010.7
20260510044328 12 5 0.0 0.0 0.13 0.99 0.05 93 1010.8
20260510043828 12 11 0.0 0.0 0.13 0.99 0.05 92 1010.8
20260510043328 12 11 0.0 0.0 0.13 0.99 0.05 92 1010.7
20260510042828 13 11 0.0 0.0 0.20 0.99 0.05 92 1010.8
20260510042330 13 11 0.0 0.0 0.28 0.99 0.05 92 1010.7
20260510041832 13 11 0.0 0.0 0.28 0.99 0.05 92 1010.7
20260510041333 13 11 0.0 0.0 0.28 0.99 0.05 92 1010.7
20260510040831 13 11 0.0 1.6 0.28 0.99 0.05 91 1010.8
20260510040331 13 11 0.0 1.6 0.25 0.97 0.03 91 1010.9
20260510035824 13 347 0.0 0.0 0.23 0.94 0.94 90 1011.1
20260510035324 13 347 0.0 0.0 0.20 0.91 0.91 89 1011.3
20260510034826 13 347 0.0 0.0 0.18 0.89 0.89 89 1011.4
20260510034326 14 347 0.0 0.0 0.15 0.86 0.86 88 1011.1
20260510033826 14 342 0.0 8.0 0.15 0.86 0.86 85 1011.2
20260510033328 15 342 0.0 11.3 0.13 0.84 0.84 85 1011.4
20260510032828 15 340 4.8 14.5 0.05 0.76 0.76 82 1011.3
20260510032327 15 5 8.0 14.5 0.00 0.71 0.71 78 1011.4
20260510031830 15 339 4.8 11.3 0.00 0.71 0.71 76 1011.2
20260510031330 16 355 6.4 16.1 0.00 0.71 0.71 76 1010.9
20260510030830 16 331 4.8 16.1 0.00 0.71 0.71 76 1010.7
20260510030352 16 355 8.0 16.1 0.00 0.71 0.71 76 1010.5
20260510025829 16 338 4.8 14.5 0.00 0.71 0.71 75 1010.7
20260510025329 16 333 8.0 11.3 0.00 0.71 0.71 75 1010.9
20260510024831 16 270 3.2 6.4 0.00 0.71 0.71 75 1009.8
20260510024331 15 270 3.2 8.0 0.00 0.71 0.71 75 1009.8
20260510023831 15 257 0.0 9.7 0.00 0.71 0.71 76 1009.7
20260510023315 15 275 1.6 12.9 0.00 0.71 0.71 75 1009.6
20260510022814 15 234 3.2 12.9 0.00 0.71 0.71 76 1009.5
20260510022316 15 32 1.6 6.4 0.00 0.71 0.71 76 1009.4
20260510021839 15 274 3.2 6.4 0.00 0.71 0.71 76 1009.4
20260510021317 15 290 0.0 3.2 0.00 0.71 0.71 76 1009.2
20260510020817 15 290 0.0 1.6 0.00 0.71 0.71 76 1009.2
20260510020340 15 290 0.0 3.2 0.00 0.71 0.71 76 1009.4
20260510015822 15 274 0.0 3.2 0.00 0.71 0.71 75 1009.4
20260510015323 15 274 0.0 1.6 0.00 0.71 0.71 75 1009.1
20260510014826 15 274 0.0 1.6 0.00 0.71 0.71 75 1009.1
20260510014326 15 274 0.0 3.2 0.00 0.71 0.71 75 1009.0
20260510013826 15 274 0.0 3.2 0.00 0.71 0.71 74 1008.9
20260510013328 15 274 0.0 1.6 0.00 0.71 0.71 74 1008.8
20260510012825 15 274 0.0 1.6 0.00 0.71 0.71 73 1008.8
20260510012325 15 272 0.0 0.0 0.00 0.71 0.71 73 1008.7
20260510011826 15 272 0.0 0.0 0.00 0.71 0.71 72 1008.8
20260510011326 16 272 0.0 1.6 0.00 0.71 0.71 72 1008.7
20260510010826 16 272 0.0 1.6 0.00 0.71 0.71 71 1008.7
20260510010329 16 255 0.0 0.0 0.00 0.71 0.71 70 1008.6
20260510005828 16 255 0.0 8.0 0.00 0.71 0.71 69 1008.7
20260510005327 16 254 0.0 8.0 0.00 0.71 0.71 69 1008.8
20260510004849 16 297 0.0 3.2 0.00 0.71 0.71 68 1008.7
20260510004328 17 297 1.6 6.4 0.00 0.71 0.71 67 1008.5
20260510003849 17 297 0.0 6.4 0.00 0.71 0.71 67 1008.5
20260510003329 17 234 0.0 11.3 0.00 0.71 0.71 67 1008.4
20260510002828 17 270 4.8 11.3 0.00 0.71 0.71 67 1008.5
20260510002328 17 284 1.6 8.0 0.00 0.71 0.71 66 1008.4
20260510001828 17 270 1.6 9.7 0.00 0.71 0.71 66 1008.3
20260510001328 17 261 4.8 11.3 0.00 0.71 0.71 66 1008.1
20260510000828 17 261 1.6 12.9 0.00 0.71 0.71 65 1008.0
20260510000328 17 272 4.8 16.1 0.00 0.71 0.71 65 1007.9
20260509235829 17 297 3.2 17.7 0.00 0.71 0.71 64 1007.9
20260509235348 17 207 3.2 17.7 0.00 0.71 0.71 64 1007.8
20260509234827 18 267 1.6 11.3 0.00 0.71 0.71 64 1007.9
20260509234328 18 297 3.2 11.3 0.00 0.71 0.71 63 1007.8
20260509233828 18 248 3.2 16.1 0.00 0.71 0.71 63 1007.9
20260509233328 18 258 4.8 12.9 0.00 0.71 0.71 63 1007.8
20260509232827 18 263 3.2 12.9 0.00 0.71 0.71 63 1007.7
20260509232327 18 111 4.8 12.9 0.00 0.71 0.71 63 1007.7
20260509231827 18 263 4.8 16.1 0.00 0.71 0.71 62 1007.7
20260509231347 18 276 3.2 16.1 0.00 0.71 0.71 61 1007.7
20260509230825 18 270 4.8 19.3 0.00 0.71 0.71 61 1007.7
20260509230347 18 312 4.8 19.3 0.00 0.71 0.71 61 1007.7
20260509225846 18 138 3.2 16.1 0.00 0.71 0.71 61 1007.7
20260509225345 18 239 1.6 14.5 0.00 0.71 0.71 61 1007.7
20260509224825 18 273 1.6 14.5 0.00 0.71 0.71 61 1007.8
20260509224324 18 259 1.6 12.9 0.00 0.71 0.71 61 1007.9
20260509223819 18 355 3.2 19.3 0.00 0.71 0.71 61 1007.9
20260509223319 18 223 9.7 19.3 0.00 0.71 0.71 60 1007.9
20260509222818 18 229 3.2 16.1 0.00 0.71 0.71 62 1007.9
20260509222319 18 282 6.4 16.1 0.00 0.71 0.71 62 1007.8
20260509221819 18 271 3.2 11.3 0.00 0.71 0.71 62 1007.8
20260509221318 18 213 4.8 11.3 0.00 0.71 0.71 63 1007.8
20260509220817 18 232 0.0 11.3 0.00 0.71 0.71 62 1008.0
20260509220338 18 56 3.2 19.3 0.00 0.71 0.71 62 1008.0
20260509215817 18 232 8.0 19.3 0.00 0.71 0.71 64 1008.2
20260509215337 18 230 6.4 19.3 0.00 0.71 0.71 63 1008.2
20260509214818 18 296 1.6 19.3 0.00 0.71 0.71 63 1008.3
20260509214319 18 270 8.0 19.3 0.00 0.71 0.71 62 1008.1
20260509213818 18 259 6.4 24.1 0.00 0.71 0.71 63 1008.1
20260509213340 18 206 8.0 24.1 0.00 0.71 0.71 64 1008.0
20260509212818 18 267 11.3 20.9 0.00 0.71 0.71 64 1008.0
20260509212318 18 285 3.2 14.5 0.00 0.71 0.71 64 1008.1
20260509211840 18 229 4.8 14.5 0.00 0.71 0.71 65 1008.1
20260509211319 18 211 8.0 14.5 0.00 0.71 0.71 67 1008.2
20260509210817 18 291 3.2 17.7 0.00 0.71 0.71 67 1008.2
20260509210318 18 230 3.2 20.9 0.00 0.71 0.71 66 1008.3
20260509205838 18 200 4.8 17.7 0.00 0.71 0.71 66 1008.3
20260509205317 18 268 3.2 14.5 0.00 0.71 0.71 69 1008.4
20260509204839 18 246 1.6 8.0 0.00 0.71 0.71 70 1008.3
20260509204317 18 200 1.6 8.0 0.00 0.71 0.71 71 1008.4
20260509203816 18 190 3.2 20.9 0.00 0.71 0.71 69 1008.4
20260509203339 18 277 6.4 20.9 0.00 0.71 0.71 69 1008.5
20260509202815 18 257 3.2 14.5 0.00 0.71 0.71 69 1008.5
20260509202332 18 258 6.4 17.7 0.00 0.71 0.71 70 1008.6
20260509201815 18 259 1.6 17.7 0.00 0.71 0.71 70 1008.7
20260509201314 18 165 3.2 14.5 0.00 0.71 0.71 70 1008.6
20260509200815 18 198 6.4 19.3 0.00 0.71 0.71 72 1008.7
20260509200315 18 219 1.6 19.3 0.00 0.71 0.71 72 1008.8
20260509195834 18 111 3.2 14.5 0.00 0.71 0.71 73 1008.7
20260509195334 18 272 4.8 9.7 0.00 0.71 0.71 75 1008.8
20260509194855 17 133 1.6 12.9 0.00 0.71 0.71 76 1008.8
20260509194331 17 279 4.8 12.9 0.00 0.71 0.71 77 1008.9
20260509193831 17 325 1.6 11.3 0.00 0.71 0.71 75 1009.0
20260509193333 17 163 1.6 11.3 0.00 0.71 0.71 75 1009.2
20260509192831 17 304 4.8 12.9 0.00 0.71 0.71 79 1009.4
20260509192351 17 171 1.6 14.5 0.00 0.71 0.71 80 1009.6
20260509191847 17 106 0.0 9.7 0.00 0.71 0.71 80 1009.6
20260509191327 16 147 1.6 14.5 0.00 0.71 0.71 79 1009.6
20260509190828 17 263 4.8 14.5 0.00 0.71 0.71 79 1009.7
20260509190328 17 289 4.8 14.5 0.00 0.71 0.71 82 1009.8
20260509185826 16 155 3.2 8.0 0.00 0.71 0.71 83 1009.8
20260509185325 16 265 3.2 11.3 0.00 0.71 0.71 86 1009.9
20260509184825 16 183 1.6 11.3 0.00 0.71 0.71 86 1009.9
20260509184324 15 107 1.6 9.7 0.00 0.71 0.71 86 1009.9
20260509183822 15 250 1.6 11.3 0.00 0.71 0.71 85 1009.9
20260509183322 15 289 1.6 11.3 0.00 0.71 0.71 86 1009.9
20260509182820 15 194 1.6 11.3 0.00 0.71 0.71 88 1010.0
20260509182320 15 265 1.6 8.0 0.00 0.71 0.71 87 1010.0
20260509181821 15 159 0.0 9.7 0.00 0.71 0.71 87 1010.1
20260509181318 15 276 3.2 11.3 0.00 0.71 0.71 88 1010.0
20260509180838 14 277 3.2 11.3 0.00 0.71 0.71 89 1010.1
20260509180318 14 293 0.0 8.0 0.00 0.71 0.71 89 1010.1
20260509175817 14 275 1.6 9.7 0.00 0.71 0.71 89 1010.1
20260509175317 14 155 1.6 9.7 0.00 0.71 0.71 91 1010.0
20260509174819 13 157 0.0 14.5 0.00 0.71 0.71 91 1010.1
20260509174320 13 175 3.2 14.5 0.00 0.71 0.71 92 1010.0
20260509173819 13 294 0.0 8.0 0.00 0.71 0.71 93 1010.1
20260509173320 13 201 0.0 9.7 0.00 0.71 0.71 93 1010.1
20260509172819 13 198 3.2 12.9 0.00 0.71 0.71 93 1010.0
20260509172320 13 129 1.6 12.9 0.00 0.71 0.71 94 1010.0
20260509171841 13 265 4.8 12.9 0.00 0.71 0.71 94 1009.9
20260509171319 13 244 3.2 11.3 0.00 0.71 0.71 95 1009.9
20260509170819 13 279 6.4 11.3 0.00 0.71 0.71 96 1009.8
20260509170342 13 316 1.6 8.0 0.00 0.71 0.71 97 1009.8
20260509165820 13 277 1.6 8.0 0.00 0.71 0.71 97 1009.7
20260509165319 12 116 1.6 6.4 0.03 0.71 0.71 97 1009.7
20260509164820 12 298 0.0 8.0 0.03 0.71 0.71 97 1009.7
20260509164341 12 112 1.6 8.0 0.03 0.71 0.71 97 1009.7
20260509163819 12 265 0.0 8.0 0.03 0.71 0.71 97 1009.7
20260509163320 12 93 0.0 8.0 0.03 0.71 0.71 97 1009.7
20260509162818 12 165 0.0 8.0 0.03 0.71 0.71 97 1009.7
20260509162339 12 321 0.0 9.7 0.03 0.71 0.71 97 1009.6
20260509161820 12 149 3.2 9.7 0.03 0.71 0.71 97 1009.6
20260509161320 12 9 3.2 9.7 0.03 0.71 0.71 98 1009.5
20260509160821 12 240 0.0 6.4 0.03 0.71 0.71 97 1009.6
20260509160320 12 137 1.6 6.4 0.05 0.71 0.71 98 1009.6
20260509155818 12 291 1.6 8.0 0.05 0.71 0.71 98 1009.6
20260509155317 11 107 0.0 9.7 0.03 0.69 0.69 97 1009.5
20260509154818 11 171 1.6 9.7 0.05 0.69 0.69 97 1009.5
20260509154337 11 260 0.0 6.4 0.05 0.69 0.69 97 1009.5
20260509153814 11 116 0.0 3.2 0.08 0.69 0.69 97 1009.2
20260509153317 11 151 0.0 8.0 0.08 0.69 0.69 98 1009.4
20260509152817 11 220 1.6 8.0 0.10 0.69 0.69 98 1009.2
20260509152315 11 120 0.0 8.0 0.13 0.69 0.69 97 1009.1
20260509151818 11 142 0.0 8.0 0.13 0.69 0.69 97 1009.5
20260509151337 11 288 0.0 8.0 0.13 0.69 0.69 97 1009.7
20260509150817 11 205 1.6 8.0 0.15 0.69 0.69 97 1009.8
20260509150317 11 245 0.0 11.3 0.15 0.66 0.66 97 1009.8
20260509145819 11 211 0.0 11.3 0.18 0.66 0.66 97 1009.9
20260509145318 11 234 0.0 6.4 0.20 0.66 0.66 97 1010.0
20260509144820 11 295 0.0 11.3 0.18 0.64 0.64 97 1010.0
20260509144320 11 325 4.8 11.3 0.20 0.64 0.64 97 1010.0
20260509143819 11 15 1.6 8.0 0.20 0.61 0.61 97 1009.9
20260509143321 11 165 1.6 8.0 0.20 0.61 0.61 97 1009.8
20260509142820 11 277 1.6 8.0 0.20 0.58 0.58 97 1009.7
20260509142320 11 301 0.0 6.4 0.20 0.56 0.56 97 1009.7
20260509141842 11 234 0.0 6.4 0.23 0.56 0.56 97 1009.9
20260509141339 11 121 0.0 6.4 0.23 0.56 0.56 97 1010.0
20260509140818 11 319 0.0 8.0 0.23 0.53 0.53 97 1010.0
20260509140339 11 94 1.6 6.4 0.20 0.51 0.51 97 1010.1
20260509135817 11 72 0.0 8.0 0.20 0.48 0.48 97 1010.0
20260509135318 11 234 1.6 9.7 0.20 0.46 0.46 96 1010.0
20260509134818 11 242 1.6 11.3 0.23 0.46 0.46 96 1010.1
20260509134317 11 272 3.2 11.3 0.23 0.43 0.43 96 1010.1
20260509133815 11 263 3.2 9.7 0.20 0.41 0.41 96 1010.1
20260509133317 11 296 1.6 8.0 0.23 0.41 0.41 96 1010.1
20260509132817 11 127 1.6 9.7 0.20 0.38 0.38 96 1010.2
20260509132318 11 154 1.6 9.7 0.20 0.36 0.36 96 1010.2
20260509131820 11 129 0.0 3.2 0.18 0.33 0.33 96 1010.2
20260509131319 11 163 1.6 3.2 0.18 0.33 0.33 96 1010.3
20260509130819 11 295 0.0 6.4 0.15 0.30 0.30 96 1010.3
20260509130320 11 235 0.0 6.4 0.15 0.30 0.30 96 1010.3
20260509125822 11 248 0.0 3.2 0.13 0.28 0.28 96 1010.4
20260509125320 11 231 0.0 6.4 0.10 0.25 0.25 96 1010.4
20260509124823 11 221 0.0 6.4 0.08 0.23 0.23 96 1010.4
20260509124341 11 259 0.0 3.2 0.05 0.20 0.20 96 1010.4
20260509123820 10 171 1.6 8.0 0.05 0.18 0.18 96 1010.4
20260509123323 10 279 3.2 8.0 0.05 0.18 0.18 96 1010.5
20260509122824 10 278 0.0 8.0 0.05 0.18 0.18 96 1010.4
20260509122324 10 235 0.0 8.0 0.03 0.15 0.15 95 1010.5
20260509121824 10 327 0.0 8.0 0.03 0.15 0.15 95 1010.4
20260509121324 10 227 1.6 8.0 0.03 0.15 0.15 95 1010.5
20260509120824 10 47 0.0 3.2 0.03 0.15 0.15 95 1010.6
20260509120341 10 46 0.0 1.6 0.03 0.15 0.15 95 1010.6
20260509115818 10 61 0.0 6.4 0.05 0.15 0.15 95 1010.6
20260509115319 10 83 1.6 6.4 0.05 0.15 0.15 95 1010.5
20260509114823 10 201 0.0 3.2 0.05 0.15 0.15 95 1010.5
20260509114323 10 204 0.0 3.2 0.05 0.15 0.15 95 1010.5
20260509113844 10 227 0.0 6.4 0.03 0.13 0.13 95 1010.4
20260509113345 10 227 0.0 6.4 0.03 0.13 0.13 95 1010.3
20260509112822 10 309 0.0 3.2 0.03 0.13 0.13 95 1010.3
20260509112324 10 57 0.0 3.2 0.05 0.13 0.13 94 1010.3
20260509111323 10 292 0.0 6.4 0.05 0.13 0.13 94 1010.3
20260509110842 10 292 0.0 1.6 0.05 0.13 0.13 94 1010.3
20260509110320 10 273 0.0 3.2 0.08 0.13 0.13 94 1010.2
20260509105818 10 273 0.0 3.2 0.05 0.10 0.10 93 1010.2
20260509105317 10 274 0.0 3.2 0.05 0.10 0.10 93 1010.2
20260509104839 10 279 0.0 3.2 0.05 0.10 0.10 93 1010.2
20260509104316 10 275 1.6 3.2 0.05 0.10 0.10 93 1010.2
20260509103817 10 245 0.0 6.4 0.05 0.10 0.10 93 1010.1
20260509103319 10 296 1.6 6.4 0.05 0.10 0.10 93 1010.2
20260509102817 11 348 0.0 8.0 0.05 0.10 0.10 92 1010.2
20260509102316 11 258 0.0 8.0 0.03 0.08 0.08 92 1010.2
20260509101817 11 107 1.6 8.0 0.03 0.08 0.08 92 1010.3
20260509101335 11 193 0.0 8.0 0.05 0.08 0.08 92 1010.2
20260509100833 11 128 0.0 8.0 0.05 0.08 0.08 92 1010.2
20260509100316 11 272 1.6 6.4 0.03 0.05 0.05 92 1010.3
20260509095816 11 256 1.6 3.2 0.03 0.05 0.05 91 1010.3
20260509095317 11 258 0.0 6.4 0.03 0.05 0.05 91 1010.3
20260509094820 11 46 0.0 8.0 0.03 0.05 0.05 91 1010.3
20260509094319 11 273 1.6 8.0 0.03 0.05 0.05 91 1010.3
20260509093818 11 246 0.0 8.0 0.05 0.05 0.05 91 1010.3
20260509093319 11 225 1.6 11.3 0.05 0.05 0.05 91 1010.4
20260509092819 11 280 1.6 14.5 0.05 0.05 0.05 92 1010.5
20260509092321 11 277 1.6 14.5 0.05 0.05 0.05 92 1010.5
20260509091823 11 161 4.8 9.7 0.05 0.05 0.05 92 1010.6
20260509091323 10 57 0.0 12.9 0.03 0.03 0.03 93 1010.7
20260509090843 10 288 4.8 12.9 0.03 0.03 0.03 93 1010.7
20260509090323 10 227 1.6 11.3 0.03 0.03 0.03 94 1010.7
20260509085822 10 293 0.0 6.4 0.03 0.03 0.03 95 1010.7
20260509085322 10 278 1.6 6.4 0.03 0.03 0.03 95 1010.8
20260509084824 10 238 1.6 6.4 0.03 0.03 0.03 95 1010.8
20260509084323 10 277 0.0 3.2 0.03 0.03 0.03 95 1010.7
20260509083845 10 259 0.0 1.6 0.00 0.00 0.00 95 1010.8
20260509083325 10 261 0.0 1.6 0.00 0.00 0.00 95 1010.8
20260509082826 10 261 0.0 1.6 0.00 0.00 0.00 95 1010.8
20260509082325 10 261 0.0 0.0 0.00 0.00 0.00 95 1010.7
20260509081828 10 261 0.0 0.0 0.00 0.00 0.00 95 1010.6
20260509081326 10 261 0.0 0.0 0.00 0.00 0.00 94 1010.5
20260509080825 10 261 0.0 1.6 0.00 0.00 0.00 94 1010.3
20260509080348 10 261 0.0 3.2 0.00 0.00 0.00 94 1010.2
20260509075846 10 260 0.0 3.2 0.00 0.00 0.00 94 1010.2
20260509075325 10 261 0.0 0.0 0.00 0.00 0.00 94 1010.0
20260509074829 10 261 0.0 3.2 0.00 0.00 0.00 94 1010.0
20260509074329 10 261 1.6 6.4 0.00 0.00 0.00 94 1009.9
20260509073829 10 261 1.6 6.4 0.00 0.00 0.00 93 1009.9
20260509073331 10 263 0.0 1.6 0.00 0.00 0.00 93 1009.7
20260509072830 10 262 0.0 0.0 0.00 0.00 0.00 93 1009.5
20260509072330 10 262 0.0 0.0 0.00 0.00 0.00 93 1009.5
20260509071830 10 262 0.0 0.0 0.00 0.00 0.00 93 1009.4
20260509071329 10 262 0.0 3.2 0.00 0.00 0.00 92 1009.4
20260509070828 10 262 1.6 3.2 0.00 0.00 0.00 92 1009.6
20260509070329 10 53 0.0 0.0 0.00 0.00 0.00 92 1009.5
20260509065828 10 53 0.0 0.0 0.00 0.00 0.00 92 1009.6
20260509065326 10 53 0.0 0.0 0.00 0.00 0.00 92 1009.6
20260509064830 10 53 0.0 0.0 0.00 0.00 0.00 92 1009.7
20260509064328 10 53 0.0 0.0 0.00 0.00 0.00 92 1009.7
20260509063829 10 53 0.0 0.0 0.00 0.00 0.00 92 1009.7
20260509063329 10 53 0.0 0.0 0.00 0.00 0.00 92 1009.8
20260509062827 10 53 0.0 0.0 0.00 0.00 0.00 92 1009.9
20260509062346 10 53 0.0 0.0 0.00 0.00 0.00 92 1009.9
20260509061826 10 53 0.0 0.0 0.00 0.00 0.00 92 1010.0
20260509061324 10 53 0.0 0.0 0.00 0.00 0.00 92 1010.2
20260509060823 10 53 0.0 0.0 0.00 0.00 0.00 92 1010.3
20260509060325 10 53 0.0 0.0 0.00 0.00 0.00 93 1010.4
20260509055844 10 53 0.0 0.0 0.00 0.00 0.00 92 1010.6
20260509055324 10 53 0.0 0.0 0.00 0.00 0.00 92 1010.7
20260509054827 10 53 0.0 0.0 0.00 0.00 0.00 93 1010.8
20260509054326 10 53 0.0 0.0 0.00 0.00 0.00 92 1010.8
20260509053826 10 53 0.0 0.0 0.00 0.00 0.00 92 1010.7
20260509053327 10 53 0.0 0.0 0.00 0.00 0.00 92 1010.7
20260509052826 10 53 0.0 0.0 0.00 0.00 0.00 92 1010.8
20260509052328 10 53 0.0 0.0 0.00 0.00 0.00 92 1010.8
20260509051828 10 53 0.0 0.0 0.00 0.00 0.00 92 1011.0
20260509051328 10 53 0.0 0.0 0.00 0.00 0.00 92 1011.0
20260509050828 10 53 0.0 0.0 0.00 0.00 0.00 92 1011.0
20260509050329 10 53 0.0 0.0 0.00 0.00 0.00 92 1011.0
20260509045844 10 53 0.0 0.0 0.00 0.00 0.00 92 1011.0